TIME,DELAY(SENSOR),PRES,T(CTD),SAL,OXYGEN,RAWTEMP,T(OPTODE),TCPHASE,FLUOR,BETA(BETA700),BETA(BETA412),BETA(BETA440),CDOM,C(CSC),ED(ED412.40),ED(ED444.00),ED(ED489.70),ED(ED554.30),LU(LU411.80),LU(LU443.40),LU(LU489.60),LU(LU554.10),COMP,TILTX,TILTX(TILTY),CHECK
1342215018,5808,495.5499877929687500,7.0605001449584960,34.1949996948242200,68.1795501708984400,585.6085815429688000,7.0481867790222170,50.1499099731445300,52,106,90,80,81,15368,2147753206,2147421732,2148002029,2147876882,2147626980,2147082550,2148240996,2147203392,2058,5,13,54895
1342215146,5811,484.2600097656250000,7.2726001739501950,34.1834983825683600,74.4451370239257800,579.2523803710938000,7.2524762153625490,49.2777595520019500,51,106,88,80,80,15366,2147750701,2147423012,2148001673,2147874669,2147626304,2147084653,2148245458,2147205613,2651,4,13,11165
1342215261,5811,473.4899902343750000,7.4479999542236330,34.1755981445312500,81.5791015625000000,573.1945800781250000,7.4468350410461430,48.3325195312500000,52,106,88,81,80,15363,2147748726,2147423780,2148000713,2147874953,2147627154,2147082048,2148241417,2147204224,3533,4,13,18769
1342215379,5808,461.7399902343750000,7.6884999275207520,34.1758995056152340,85.8889007568359400,566.3897705078125000,7.6647758483886720,47.7286415100097660,50,106,90,81,79,15363,2147749732,2147426011,2148003556,2147874468,2147629339,2147095433,2148243318,2147206244,491,4,13,3392
1342215482,5807,451.0199890136719000,7.8998999595642090,34.1651000976562500,96.3885879516601600,559.4755249023438000,7.8858108520507810,46.4471092224121100,51,108,90,80,78,15363,2147744192,2147423954,2148002432,2147875309,2147627702,2147087734,2148241764,2147208996,865,4,13,20628
1342215585,5808,440.2000122070312500,8.1154003143310550,34.1519012451171900,107.5851974487304700,552.5144042968750000,8.1079330444335940,45.1518287658691400,51,109,88,81,78,15363,2147746998,2147422857,2148003867,2147875574,2147625408,2147089865,2148238253,2147203602,227,5,13,37492
1342215703,5807,429.3200073242187500,8.3184995651245120,34.1571006774902340,113.6772994995117200,546.4343872070312000,8.3016109466552730,44.4397010803222660,50,109,87,81,78,15363,2147746669,2147423241,2148000347,2147872448,2147624192,2147092196,2148233554,2147203693,495,4,13,55414
1342215842,5810,419.2699890136719000,8.4653997421264650,34.1502990722656250,119.8861999511718800,541.9182739257812000,8.4452743530273440,43.7609100341796900,50,108,89,82,77,15365,2147744000,2147423350,2147996379,2147875382,2147622838,2147094290,2148233728,2147206125,905,4,13,7790
1342216011,5808,407.4400024414062500,8.6178998947143550,34.1519012451171900,128.1717987060547000,536.5659179687500000,8.6153335571289060,42.8925781250000000,50,110,90,80,78,15360,2147741897,2147421833,2147999360,2147873810,2147619821,2147091739,2148230098,2147208475,3417,4,13,45132
1342216150,5808,396.2600097656250000,9.0051002502441400,34.1445999145507800,139.8527069091797000,524.7747802734375000,8.9891643524169920,41.6541404724121100,50,109,89,80,76,15364,2147743579,2147421732,2148003172,2147876269,2147619200,2147092224,2148232128,2147204918,459,5,13,21080
1342216286,5805,385.4700012207031000,9.3060998916625980,34.1296997070312500,159.1042022705078000,515.2421875000000000,9.2906198501586910,39.9179611206054700,50,107,88,80,75,15365,2147744100,2147422665,2147998436,2147874761,2147618468,2147101321,2148223387,2147204864,836,4,13,56984
1342216402,5808,374.4200134277344000,9.5864000320434570,34.1273994445800800,172.7854003906250000,506.4083862304687500,9.5693778991699220,38.7468414306640600,50,105,90,81,74,15369,2147738413,2147422765,2148000192,2147878893,2147617161,2147098569,2148223332,2147207177,771,4,13,43298
1342216505,5810,363.9800109863281000,9.9123001098632810,34.1315994262695300,184.8423004150390600,495.7644042968750000,9.9045248031616210,37.7286109924316400,49,105,90,81,72,15368,2147740214,2147423469,2148004352,2147872109,2147616036,2147098185,2148226093,2147206528,1541,4,13,37641
1342216611,5810,353.2600097656250000,10.1936998367309570,34.1447982788085940,194.9091033935547000,487.0220947265625000,10.1792097091674800,36.9237098693847660,49,107,89,81,72,15368,2147738441,2147423296,2148005860,2147873974,2147612525,2147101851,2148222656,2147211227,2004,4,13,31445
1342216726,5805,341.5700073242187500,10.4413995742797850,34.1533012390136700,200.2794036865234400,478.8518066406250000,10.4354600906372070,36.4509582519531250,49,106,88,81,72,15370,2147740041,2147425334,2148006939,2147876013,2147609115,2147104292,2148225005,2147209097,2090,4,13,58189
1342216829,5810,331.3699951171875000,10.7172002792358400,34.1649017333984400,203.3432006835937500,469.5710144042969000,10.7260303497314450,36.1104202270507800,49,107,89,81,72,15367,2147740617,2147426066,2148010733,2147873782,2147610459,2147105590,2148221440,2147207113,2155,4,13,5708
1342216947,5810,321.0199890136719000,11.1772003173828120,34.1823997497558600,207.5783996582031200,456.2255859375000000,11.1429195404052730,35.6378211975097660,49,109,89,80,71,15366,2147738651,2147426962,2148016804,2147874441,2147609618,2147115574,2148223579,2147208749,3054,4,13,64089
1342217110,5810,310.3599853515625000,11.7988004684448240,34.2148017883300800,210.8184051513672000,436.1140136718750000,11.7692403793334960,35.1236381530761700,49,107,92,81,70,15364,2147732342,2147430418,2148025737,2147874212,2147605348,2147115044,2148226304,2147208777,137,4,14,20936
1342217266,5810,298.5599975585937500,12.0198001861572270,34.2304000854492200,211.5274047851562500,428.1878967285156000,12.0154695510864260,34.9561882019043000,48,105,89,80,69,15365,2147733129,2147433481,2148034230,2147873956,2147606793,2147123108,2148228772,2147209462,894,4,14,30464
1342217393,5809,286.7600097656250000,12.3415002822875980,34.2481994628906250,212.0531005859375000,417.9383850097656000,12.3334102630615230,34.7643089294433600,48,106,87,80,68,15364,2147731931,2147437769,2148053851,2147874880,2147601252,2147131008,2148239451,2147208932,1286,4,13,35512
1342217510,5811,276.6300048828125000,12.9190998077392580,34.2846984863281250,212.1329040527343800,400.5635070800781000,12.8712301254272460,34.4875984191894500,48,108,87,80,70,15366,2147734683,2147439414,2148072146,2147871881,2147600813,2147135506,2148248310,2147211638,2654,4,14,46941
1342217649,5810,265.5899963378906000,13.4450998306274410,34.3288002014160160,212.8851013183593800,381.8671875000000000,13.4484701156616210,34.1556015014648440,49,104,90,81,68,15366,2147731218,2147451794,2148097892,2147872969,2147597440,2147141961,2148249892,2147212726,3018,3,14,48316
1342217788,5807,254.9700012207031200,13.9381999969482420,34.3684005737304700,212.4801940917968800,366.4682922363281000,13.9228696823120120,33.9442291259765600,49,104,86,80,70,15365,2147728054,2147461366,2148133065,2147874797,2147595291,2147156772,2148270244,2147212845,2206,4,14,63476
1342217935,5808,242.9400024414062500,14.6291999816894530,34.4332008361816400,213.6390991210937500,342.5260009765625000,14.6588497161865230,33.5191993713378900,49,106,89,80,69,15367,2147726985,2147490304,2148202011,2147874642,2147593627,2147172096,2148301229,2147218075,1395,3,14,65132
1342218062,5808,232.8399963378906200,15.0747003555297850,34.4845008850097660,218.1089019775390600,328.8900146484375000,15.0772399902343750,33.0714797973632800,49,106,87,80,68,15362,2147731355,2147516699,2148264978,2147873910,2147591954,2147190893,2148322806,2147222281,3211,3,14,47663
1342218215,5810,221.5299987792968800,15.9425001144409180,34.5780982971191400,221.2579040527343800,300.9460144042969000,15.9332399368286130,32.4966392517089840,48,106,86,81,67,15360,2147735908,2147562322,2148380973,2147875940,2147590802,2147224850,2148380845,2147226459,2848,3,14,63940
1342218366,5808,210.2599945068359400,16.5820999145507800,34.6495018005371100,220.7393035888672000,278.6771850585937500,16.6143302917480470,32.2059593200683600,49,107,87,82,66,15359,2147736512,2147570422,2148373842,2147873216,2147587785,2147239899,2148376603,2147225554,1919,4,14,65096
1342218525,5805,197.8200073242187500,17.4827003479003900,34.7607002258300800,218.5596008300781200,250.2785949707031200,17.4820404052734380,31.9219894409179700,51,110,88,81,65,15348,2147773696,2147765129,2148799076,2147874002,2147599222,2147346368,2148584740,2147241993,1011,3,14,55499
1342218580,5807,192.5299987792968800,17.9078998565673830,34.8056983947753900,216.9535980224609400,235.7628021240234400,17.9253501892089840,31.8052692413330080,53,109,89,81,66,15348,2147795373,2147843081,2148959972,2147876525,2147606217,2147398592,2148656091,2147244169,1316,3,14,52387
1342218635,5808,187.4499969482422000,18.2028007507324220,34.8437004089355500,216.1640930175781200,226.2572021484375000,18.2156391143798830,31.7160301208496100,56,108,89,80,66,15345,2147825270,2147937819,2149131099,2147876333,2147612452,2147449133,2148740342,2147252489,1144,3,15,33033
1342218690,5812,182.4400024414062500,18.4333000183105470,34.8749008178710940,215.7859039306640600,218.7317962646484400,18.4454498291015620,31.6326808929443360,59,110,90,81,65,15344,2147857078,2148046948,2149329920,2147880118,2147625289,2147510290,2148823414,2147260946,1115,3,15,58131
1342218745,5805,177.5899963378906200,18.9587001800537100,34.9289016723632800,214.0408935546875000,202.8690032958984400,18.9299392700195300,31.5087394714355470,64,111,91,82,64,15338,2147904932,2148185142,2149572178,2147881901,2147641718,2147589348,2148936064,2147266203,835,3,15,51538
1342218820,5808,171.6499938964843800,19.1762008666992200,34.9571990966796900,212.6398010253906200,194.7985992431640600,19.1764907836914060,31.4740104675292970,68,111,89,83,66,15337,2147987949,2148395968,2149928896,2147882514,2147674075,2147694829,2149084397,2147281170,1493,3,15,13621
1342218875,5809,167.7299957275390600,19.2828006744384770,34.9695014953613300,212.5617065429687500,191.5196075439453000,19.2766799926757800,31.4335708618164060,66,114,88,81,65,15335,2148064045,2148568914,2150212470,2147884278,2147698843,2147782546,2149212114,2147292873,1138,3,15,29393
1342218930,5810,163.8399963378906200,19.4104003906250000,34.9752006530761700,212.1846008300781200,186.7480010986328000,19.4224891662597660,31.3889102935791000,68,115,89,81,65,15330,2148161398,2148771163,2150521993,2147885504,2147735634,2147889426,2149352630,2147302272,1048,4,15,11649
1342218985,5802,160.1000061035156200,19.5930995941162100,34.9822998046875000,212.0171051025390600,181.6179046630859400,19.5792903900146500,31.3283901214599600,70,111,90,82,65,15328,2148281453,2149020809,2150916745,2147890678,2147782016,2148012269,2149516425,2147316827,1864,3,15,14920
1342219040,5806,156.1799926757812500,19.7964992523193360,34.9970016479492200,211.8061981201172000,174.3350067138672000,19.8019409179687500,31.2414207458496100,75,115,88,81,65,15326,2148436809,2149328758,2151390144,2147889636,2147842477,2148167981,2149724754,2147332598,2624,3,15,56728
1342219095,5810,152.3899993896484400,20.1543006896972660,35.0392990112304700,212.2391052246093800,162.8168945312500000,20.1542301177978500,31.0630893707275400,77,117,89,83,63,15319,2148639798,2149697225,2151930733,2147895451,2147911780,2148342189,2149937828,2147350893,2952,3,15,52894
1342219173,5807,147.2500000000000000,20.4817008972167970,35.0798988342285160,213.3827056884765600,153.3372039794922000,20.4443397521972660,30.8748397827148440,82,118,88,83,64,15320,2148961865,2150251309,2152720685,2147905993,2148035968,2148621248,2150295936,2147376649,326,3,15,56869
1342219240,5807,143.5899963378906200,20.8202991485595700,35.1206016540527340,214.0249938964843800,142.0942993164062500,20.7886505126953120,30.6911907196044920,87,118,92,82,64,15309,2149229641,2150675401,2153316562,2147912054,2148139218,2148834084,2150554139,2147403172,556,2,15,35740
1342219319,5807,139.8999938964843800,21.0706005096435550,35.1505012512207000,216.5298004150390600,133.6710052490234400,21.0467891693115230,30.4483699798584000,92,120,91,82,64,15306,2149588900,2151238189,2154092077,2147919350,2148279131,2149108297,2150878418,2147427117,649,2,15,54297
1342219434,5805,136.3899993896484400,21.4183998107910160,35.1870994567871100,218.7917938232422000,122.2688980102539000,21.3964900970459000,30.1814994812011720,98,122,90,82,61,15287,2149982491,2151812909,2154866349,2147929517,2148440054,2149389174,2151195529,2147456493,3579,2,16,8598
1342219812,5807,131.7899932861328000,21.9192008972167970,35.2160987854003900,225.6961059570312500,105.8369979858398400,21.9011096954345700,29.6215400695800780,107,121,89,84,62,15275,2151024914,2153171154,2156619547,2147953782,2148899008,2150050093,2151912329,2147519177,1537,2,15,44378
1342219939,5808,128.0200042724609400,22.1231002807617200,35.2251014709472660,229.6181030273437500,99.0270462036132800,22.1104793548584000,29.3435897827148440,118,124,90,83,63,15266,2151997686,2154477229,2158255652,2147981522,2149325924,2150674377,2152572022,2147578066,1040,2,16,43276
1342220090,5810,124.1100006103515600,22.3080005645751950,35.2219009399414060,233.4683074951172000,93.0311813354492200,22.2949600219726560,29.0838508605957030,127,122,91,83,61,15254,2153220745,2156081408,2160148480,2148008658,2149837888,2151365138,2153273225,2147642870,720,3,15,62801
1342220216,5811,119.5199966430664000,22.4647998809814450,35.1966018676757800,236.3762054443359400,87.4815063476562500,22.4658107757568360,28.8775596618652340,128,124,90,83,62,15236,2155346852,2158859483,2163369234,2148070838,2150702326,2152500763,2154467785,2147756873,62,3,15,8088
1342220307,5804,115.5999984741211000,22.6779994964599600,35.1866989135742200,237.1614074707031200,81.1716384887695300,22.6602096557617200,28.7614593505859380,127,122,93,84,62,15235,2157330404,2161434843,2166312731,2148133851,2151519616,2153572553,2155595821,2147867858,3183,3,15,23472
1342220398,5811,111.7900009155273400,22.8833007812500000,35.1991004943847660,235.8280944824218800,75.2241592407226600,22.8435897827148440,28.7478408813476560,110,121,92,83,62,15245,2159581046,2164310217,2169602587,2148209883,2152442258,2154813248,2156924900,2147993865,3362,2,16,21527
1342220504,5809,107.8899993896484400,23.0102996826171880,35.2094001770019500,237.3034973144531200,70.2955627441406200,22.9956493377685550,28.6180305480957030,103,121,93,84,60,15247,2159070765,2163029202,2167330916,2148205796,2152303442,2154308754,2156114770,2147940644,492,2,15,43257
1342220631,5811,104.3899993896484400,23.1284008026123050,35.2137985229492200,238.1199951171875000,66.6941680908203100,23.1068305969238280,28.5352191925048830,104,120,94,83,62,15240,2164366610,2170034870,2175621586,2148402304,2154604525,2157537289,2159599734,2148264192,3087,2,16,40410
1342220830,5810,99.8600006103515600,23.3712005615234380,35.2319984436035160,239.1950988769531200,57.8744506835937500,23.3793392181396500,28.3761405944824220,95,124,95,85,59,15238,2170239012,2176527890,2181540379,2148605577,2157578084,2161002267,2162648466,2148569600,2262,2,15,36781
1342220885,5815,97.8700027465820300,23.5058994293212900,35.2517013549804700,238.9716033935547000,53.9898185729980500,23.4994697570800780,28.3374691009521500,90,128,93,85,59,15244,2173156681,2179781321,2184649965,2148731392,2159021961,2162692059,2164147922,2148723401,1764,2,16,54990
1342220940,5809,95.9700012207031200,23.5685005187988280,35.2589988708496100,239.0209045410156200,51.6505203247070300,23.5718498229980470,28.3062400817871100,90,126,94,84,62,15238,2176080804,2182960420,2187676827,2148850843,2160530532,2164431808,2165673334,2148871149,985,2,16,8853
1342220995,5805,93.9199981689453100,23.7649993896484380,35.2873001098632800,240.5984039306640600,46.0581817626953100,23.7449703216552730,28.1654396057128900,86,127,95,85,59,15241,2178760137,2185886884,2190490569,2148988324,2162154102,2166273636,2167264320,2149021540,413,2,16,7819
1342221050,5808,91.8700027465820300,23.8083000183105470,35.2937011718750000,242.5055999755859400,44.3521385192871100,23.7978191375732420,28.0591392517089840,85,124,91,83,59,15239,2181746002,2189133293,2193535936,2149146596,2164080347,2168380900,2169030930,2149204105,189,2,16,58719
1342221128,5809,88.4199981689453100,23.8801002502441400,35.2957992553710940,244.2077026367187500,41.9025993347168000,23.8737106323242200,27.9536705017089840,81,126,94,85,58,15240,2189332242,2197755611,2202211337,2149607744,2168673929,2173560000,2173423414,2149653184,126,2,16,59714
1342221183,5812,85.3399963378906200,23.9267005920410160,35.2948989868164060,244.8968048095703000,40.3603096008300800,23.9215106964111330,27.9043006896972660,80,125,93,85,59,15241,2194495186,2202895579,2206582198,2149909202,2172557924,2177636068,2176598427,2149971510,3202,2,16,63589
1342221238,5805,82.3899993896484400,24.0188999176025400,35.2918014526367200,245.7259979248047000,37.2800598144531250,24.0170192718505860,27.8301105499267580,79,127,93,85,59,15235,2197060516,2205007424,2207652635,2150167780,2174566381,2179287853,2177385234,2150092992,3254,2,16,42298
1342221293,5807,79.9000015258789000,24.1672000885009770,35.2907981872558600,246.0711059570312500,33.4274902343750000,24.1365394592285160,27.7674503326416000,74,125,95,85,57,15231,2202162084,2209966491,2211766646,2150476653,2178621842,2183512146,2180622409,2150421193,433,2,16,38259
1342221348,5808,78.0000000000000000,24.1928005218505860,35.2913017272949200,246.2160949707031200,31.9667301177978500,24.1818695068359380,27.7431106567382800,73,127,94,84,59,15231,2194476169,2199778057,2200001837,2150008548,2175227328,2178726848,2175569334,2149917942,774,2,16,50812
1342221403,5808,76.1600036621093800,24.2499008178710940,35.2891006469726560,246.4532928466797000,29.5474700927734380,24.2569808959960940,27.7030792236328120,72,127,94,85,62,15230,2205395428,2211799378,2211792539,2150764361,2181973805,2186066550,2181547904,2150568064,861,2,16,16001
1342221461,5811,74.3499984741211000,24.5629005432128900,35.2876014709472660,246.0402069091797000,21.5213203430175780,24.5063705444335940,27.6224403381347660,70,129,94,87,57,15220,2202321481,2207411428,2206503497,2150580662,2181118208,2184462144,2179533942,2150359808,1023,2,16,4028
1342221516,5807,73.0999984741211000,24.7148990631103500,35.2867012023925800,245.4302978515625000,16.3629894256591800,24.6668395996093750,27.5856094360351560,69,127,93,85,58,15216,2223242349,2231299254,2230886308,2152145700,2194386806,2199432118,2192241417,2151685129,1183,2,16,42968
1342221607,5806,71.6100006103515600,24.7642002105712900,35.2832984924316400,245.8052978515625000,13.5659799575805660,24.7539100646972660,27.5350093841552730,70,125,93,86,58,15217,2222203867,2229172672,2227815204,2152095286,2194464996,2198963373,2191331648,2151622400,1226,2,16,19929
1342221817,5810,69.0599975585937500,24.8113002777099600,35.2368011474609400,245.5001983642578000,11.5630302429199220,24.8162899017334000,27.5237598419189450,65,124,94,86,59,15207,2238247296,2246159881,2244655040,2153668580,2206187410,2211145014,2200760402,2152667090,253,2,16,13310
1342221884,5808,67.0999984741211000,24.8010997772216800,35.1893997192382800,245.5531005859375000,11.3193197250366210,24.8238792419433600,27.5185298919677730,62,127,95,84,57,15211,2245255332,2252461385,2250213229,2154619126,2213593590,2218431652,2205910189,2153276178,846,2,16,43083
1342221951,5810,64.9400024414062500,24.7945003509521500,35.0970993041992200,246.4062042236328000,12.3108701705932620,24.7929897308349600,27.4937305450439450,63,126,93,87,55,15207,2251214326,2258042468,2255189970,2155594002,2219865508,2224185526,2209663405,2153778678,1390,2,16,4841
1342222018,5813,63.1100006103515600,24.7903995513916000,34.9906997680664060,246.6504974365234400,12.1541996002197270,24.7978706359863280,27.4811992645263670,63,124,94,87,56,15196,2256349293,2262790857,2259015762,2156275593,2225368393,2229381248,2213224603,2154239405,1800,2,16,39577
1342222096,5808,61.1199989318847660,24.8955001831054700,34.9940986633300800,245.8993988037109400,9.1816396713256840,24.8904800415039060,27.4771804809570300,63,126,94,86,56,15207,2267476672,2275004544,2271816155,2158230939,2233733238,2237809865,2219587099,2155121252,1538,2,16,865
1342222163,5807,58.7700004577636700,25.1669998168945300,35.0157012939453100,244.2151947021484400,0.8165807127952576,25.1513500213623050,27.4480895996093750,61,125,97,85,59,15206,2274915958,2282066322,2278003474,2159443904,2242006189,2245345929,2224789440,2155818450,1454,2,16,37913
1342222218,5809,57.3699989318847660,25.3360996246337900,35.0335006713867200,242.3867950439453000,-4.2084932327270510,25.3082599639892580,27.4664001464843750,62,122,96,87,57,15206,2278766162,2286350564,2282111643,2160528009,2246924790,2249977142,2228032118,2156346550,2020,2,16,55952
1342222369,5809,55.8400001525878900,25.3724994659423830,35.0392990112304700,241.1831970214843800,-6.3910250663757320,25.3764591217041000,27.4926204681396500,61,123,91,85,59,15210,2284202733,2292395638,2288518774,2162000347,2250827264,2253619419,2230651666,2156865609,2151,1,16,56087
1342222519,5809,53.1300010681152340,25.6338005065917970,35.0758018493652340,238.1764068603515600,-14.4202299118042000,25.6275997161865230,27.5277309417724600,57,121,92,84,59,15205,2296397302,2304273133,2299946285,2164911259,2269907565,2270610029,2241889298,2158317366,1419,2,16,57099
1342222598,5806,51.0999984741210940,25.6469001770019530,35.0775985717773440,237.2779998779297000,-15.2657203674316400,25.6540603637695300,27.5573997497558600,56,120,90,85,57,15216,2309060827,2318056594,2313930230,2168311323,2289998976,2289411154,2254797778,2160218752,1845,2,16,27754
1342222665,5809,48.8899993896484400,25.6558990478515620,35.0797004699707000,236.8721923828125000,-15.5586996078491210,25.6632404327392580,27.5722599029541000,56,121,93,83,59,15213,2306046299,2314090395,2309607872,2169259510,2293095094,2289828681,2253279268,2160322203,1922,2,16,56306
1342222720,5808,46.8199996948242200,25.6616001129150400,35.0797004699707000,236.9275970458984400,-15.7166500091552730,25.6681804656982420,27.5677108764648440,56,122,94,86,58,15215,2320995913,2330159881,2325934674,2173718098,2314052534,2308969901,2266137197,2162134518,1862,2,17,44851
1342222798,5809,43.2299995422363300,25.6613006591796880,35.0789985656738300,236.7830963134765600,-15.7217597961425780,25.6683406829834000,27.5742301940917970,55,122,94,85,62,15213,2338901458,2348662272,2345537161,2182026761,2342366765,2333922029,2282853732,2165304237,1596,2,16,18283
1342222853,5806,40.1100006103515600,25.6611003875732420,35.0794982910156250,236.8022003173828000,-15.8359403610229500,25.6719207763671880,27.5718402862548830,55,120,93,85,58,15197,2359805924,2371458294,2369577563,2190836608,2369060416,2357559131,2298351506,2168220955,1449,2,16,39074
1342222908,5807,37.0099983215332000,25.6618995666503900,35.0789985656738300,236.9235992431640600,-15.7954196929931640,25.6706504821777340,27.5667991638183600,54,119,92,85,56,15214,2382996489,2396042578,2395530048,2202441014,2403706313,2388629028,2319001792,2172520521,1392,2,16,60462
1342222963,5809,33.9099998474121100,25.6629009246826170,35.0792007446289060,237.0169067382812500,-15.9129495620727540,25.6743297576904300,27.5612297058105470,54,121,93,85,55,15208,2409143241,2424437421,2425123346,2216166244,2434852672,2416063872,2337004699,2176177499,1357,3,16,19872
1342223018,5811,30.8199996948242200,25.6646003723144530,35.0791015625000000,237.0619049072265600,-16.0182800292968750,25.6776294708251950,27.5579605102539060,52,122,93,86,56,15196,2289456923,2291070619,2285871131,2183377709,2330489654,2312103076,2259295131,2163934564,1342,2,16,26978
1342223073,5806,27.6900005340576170,25.6655998229980470,35.0791015625000000,237.0953063964843800,-15.7270698547363280,25.6685104370117200,27.5601291656494140,51,118,94,85,55,15209,2255926171,2255389851,2250217325,2176192054,2279970953,2263179657,2224448201,2159503424,1265,2,16,18014
1342223131,5805,24.2500000000000000,25.6683006286621100,35.0789985656738300,237.0063018798828000,-15.8456802368164060,25.6722202301025400,27.5626106262207030,52,122,91,84,51,15214,2269646683,2270423122,2266266587,2185891611,2300298432,2281426057,2236920868,2162681892,1190,2,16,7123
